Flag for Portugal Weather past 2 weeks in Ponta Delgada, Azores, Portugal

64 °F

Rain. Passing clouds.

Feels Like: 64 °F
Forecast: 67 / 70 °F
Wind: 12 mph from Southeast

Location: Ponta Delgada / Nordela Acores

Current Time: Oct 14, 2015 at 4:40:20 AM

Latest Report: Oct 14, 2015 at 4:00 AM

Visibility: 3 mi

Pressure: 29.86 "Hg

Humidity: 88%

Dew point: 61 °F

Location of Ponta DelgadaLocation

Historic Weather in Ponta Delgada — Graph


Ponta Delgada temperature yesterday

Maximum temperature yesterday: 72 °F (at 1:30 PM)
Minimum temperature yesterday: 64 °F (at 12:00 AM)
Average temperature yesterday: 68 °F

Past Weeks' High & Low Weather Summary

High73 °F (Oct 1, 2:00 PM)100% (Oct 8, 7:30 AM)30.21 "Hg (Oct 8, 7:30 AM)
Low55 °F (Oct 7, 3:30 AM)53% (Oct 6, 3:00 PM)29.53 "Hg (Oct 4, 3:00 PM)
Average67 °F77%29.90 "Hg
* Reported Sep 29 3:00 AM — Oct 14 3:30 AM, Ponta Delgada, Weather by CustomWeather, © 2015

Note: Actual official high and low records may vary slightly from our data, if they occured in-between our weather recording intervals... More about our weather records


Ponta Delgada weather history for previous 24 hours

Time TempWeatherWind HumidityBarometerVisibility
3:30 AM
Wed, Oct 14
64 °FRain. Passing clouds.17 mph83%29.86 "Hg3 mi
3:00 AM66 °FRain. Passing clouds.20 mph94%29.86 "Hg2 mi
2:30 AM66 °FLight rain. Passing clouds.16 mph88%29.89 "Hg3 mi
2:00 AM68 °FRain. Passing clouds.14 mph94%29.89 "Hg3 mi
1:30 AM68 °FLight rain. Passing clouds.12 mph94%29.92 "Hg5 mi
1:00 AM68 °FLight rain. Passing clouds.14 mph88%29.92 "Hg6 mi
12:30 AM68 °FSprinkles. Passing clouds.15 mph88%29.95 "HgN/A
12:00 AM68 °FPassing clouds.14 mph88%29.95 "HgN/A
11:30 PM
Tue, Oct 13
68 °FPassing clouds.15 mph88%29.95 "HgN/A
11:00 PM68 °FPassing clouds.16 mph88%29.95 "HgN/A
10:30 PM68 °FPassing clouds.15 mph88%29.95 "HgN/A
10:00 PM68 °FPassing clouds.14 mph83%29.95 "HgN/A
9:30 PM68 °FPassing clouds.14 mph83%29.98 "HgN/A
9:00 PM68 °FPassing clouds.13 mph83%29.98 "HgN/A
8:30 PM68 °FPassing clouds.13 mph83%30.01 "HgN/A
8:00 PM68 °FPartly sunny.14 mph78%30.01 "HgN/A
7:30 PM68 °FScattered clouds.13 mph78%30.01 "HgN/A
7:00 PM68 °FPassing clouds.12 mph73%30.01 "HgN/A
6:30 PM68 °FPartly sunny.12 mph73%30.01 "HgN/A
6:00 PM68 °FScattered clouds.13 mph73%30.01 "HgN/A
5:30 PM70 °FPassing clouds.14 mph69%30.01 "HgN/A
5:00 PM70 °FPassing clouds.13 mph64%30.01 "HgN/A
4:30 PM70 °FPassing clouds.14 mph69%30.04 "HgN/A
4:00 PM70 °FPassing clouds.13 mph64%30.04 "HgN/A
3:30 PM70 °FPassing clouds.14 mph64%30.04 "HgN/A
3:00 PM72 °FPassing clouds.14 mph61%30.04 "HgN/A
2:30 PM70 °FPassing clouds.14 mph64%30.04 "HgN/A
2:00 PM70 °FPassing clouds.14 mph60%30.07 "HgN/A
1:30 PM72 °FPassing clouds.15 mph61%30.07 "HgN/A
1:00 PM70 °FPassing clouds.15 mph60%30.07 "HgN/A
12:30 PM70 °FPassing clouds.14 mph60%30.07 "HgN/A
12:00 PM70 °FPassing clouds.15 mph60%30.09 "HgN/A
11:30 AM70 °FPassing clouds.13 mph60%30.09 "HgN/A
11:00 AM68 °FPassing clouds.14 mph64%30.09 "HgN/A
10:30 AM66 °FPassing clouds.13 mph64%30.09 "HgN/A
10:00 AM66 °FPassing clouds.12 mph64%30.09 "HgN/A
9:30 AM68 °FPassing clouds.13 mph64%30.09 "HgN/A
9:00 AM66 °FScattered clouds.14 mph68%30.09 "HgN/A
8:30 AM66 °FPassing clouds.12 mph68%30.09 "HgN/A
8:00 AM66 °FPassing clouds.12 mph68%30.09 "HgN/A
7:30 AM66 °FPassing clouds.10 mph68%30.09 "HgN/A
7:00 AM66 °FPassing clouds.9 mph64%30.09 "HgN/A
6:30 AM66 °FPassing clouds.10 mph73%30.09 "HgN/A
6:00 AM66 °FPassing clouds.12 mph68%30.09 "HgN/A
5:30 AM66 °FPassing clouds.14 mph68%30.09 "HgN/A
5:00 AM66 °FPassing clouds.14 mph64%30.09 "HgN/A
4:30 AM66 °FPassing clouds.14 mph64%30.09 "HgN/A
4:00 AM66 °FPassing clouds.14 mph68%30.12 "HgN/A
Weather by CustomWeather, © 2015

See weather overviewHow to use our weather pages